Wind_Speed
8 8 7 7 6 5 4 4 4 4 5 5 5 6 6 6 7 8 8 8 8 8 9 10 10 10 10 9 9 7 6 5 4 4 4 3 2 2 2 2 2 2 1 1
9 9 8 8 7 6 5 5 5 5 5 5 5 6 6 6 7 8 8 8 8 8 8 9 10 9 9 9 9 8 7 6 5 5 4 3 3 3 3 3 3 2 2 2
11 10 10 8 8 7 6 6 6 6 6 6 6 7 7 7 8 8 8 8 8 9 9 8 9 8 9 9 9 9 8 7 7 5 4 4 4 3 3 4 4 3 3 4
12 11 11 10 10 9 8 8 8 7 6 6 6 5 8 8 8 9 8 8 9 9 9 9 9 9 9 10 9 9 8 8 8 6 6 5 5 4 4 4 5 4 4 5
13 13 11 11 11 10 10 9 9 8 8 7 7 5 7 8 8 9 9 9 9 9 10 9 9 9 9 9 10 9 8 8 8 7 6 6 6 5 5 5 6 6 6 6
14 13 13 12 11 11 10 9 8 8 8 8 8 6 7 8 9 9 10 10 9 9 10 10 10 10 10 10 9 9 8 8 8 7 7 7 6 6 6 6 7 8 7 7
13 13 13 12 12 10 9 7 8 8 8 10 10 8 8 8 9 10 10 10 10 10 10 10 11 10 10 10 9 9 8 8 9 8 8 8 8 8 8 8 9 9 9 9
14 13 13 12 12 10 9 8 8 7 8 10 11 10 10 10 10 10 11 12 12 12 12 12 11 11 11 10 10 10 9 9 9 9 10 10 10 9 10 10 10 10 10 10
15 15 15 13 13 12 12 10 10 9 10 10 11 12 11 10 10 11 13 13 13 13 12 12 12 12 12 11 11 11 11 10 10 11 11 11 12 12 12 12 11 11 11 12
17 17 16 15 14 13 13 12 11 10 12 11 12 12 12 12 12 12 13 14 14 14 14 13 13 13 12 12 12 12 13 13 13 13 13 13 13 13 13 13 13 13 13 13
18 17 17 16 16 15 14 13 13 13 13 11 11 13 13 14 14 14 14 14 15 15 14 14 13 13 14 14 14 14 14 14 15 15 15 15 14 14 14 14 15 14 14 15
18 18 18 18 17 16 16 15 14 14 14 13 12 14 15 15 15 15 15 15 15 15 15 15 14 14 15 15 16 16 16 16 17 17 17 17 16 15 15 15 15 15 15 15
19 19 18 17 18 18 17 16 14 14 15 14 13 15 17 17 17 16 16 16 16 16 16 16 16 16 16 16 17 17 17 18 18 18 17 17 17 16 16 16 15 16 17 16
19 19 18 18 18 18 18 17 16 16 15 15 15 16 17 18 18 17 16 17 17 17 17 17 17 17 17 17 17 17 17 17 17 17 17 17 17 18 17 17 17 17 17 17
20 20 20 20 20 19 19 18 18 18 17 17 17 17 18 19 19 18 17 17 18 18 17 17 18 18 17 17 17 17 18 18 18 19 19 19 19 19 19 18 18 18 18 19
21 21 20 20 20 20 20 20 20 19 19 18 18 19 19 19 18 18 18 19 19 18 18 18 18 18 18 18 18 19 20 21 21 21 21 21 21 21 21 21 21 21 21 22
21 21 20 20 21 21 21 21 20 20 20 20 19 20 20 19 19 19 20 20 19 19 20 20 19 19 20 21 20 21 22 23 23 24 24 24 23 23 24 24 24 24 24 24
22 22 21 20 21 21 21 21 21 21 21 21 21 21 21 21 21 21 21 21 20 21 21 22 22 22 22 22 21 21 22 23 23 24 25 25 24 24 24 25 25 25 25 26
23 23 22 22 21 22 22 22 21 22 22 21 22 22 21 22 22 22 22 21 21 21 22 23 23 23 23 23 22 22 22 23 23 23 24 24 25 25 25 25 26 26 27 27
23 23 23 23 23 22 23 23 22 22 22 21 22 22 22 22 23 22 22 23 22 22 23 23 24 24 24 23 23 23 23 23 23 23 24 24 24 25 25 25 26 27 27 27
23 23 23 23 23 23 24 23 22 22 22 22 22 22 23 23 23 24 23 23 23 24 24 24 24 24 24 24 24 24 25 25 24 24 24 24 25 25 25 26 27 28 28 28
23 24 23 23 23 24 24 23 23 22 22 22 23 23 23 23 23 23 23 23 24 24 24 24 24 24 24 25 25 25 25 25 25 25 25 25 25 26 26 27 27 28 28 28
24 24 23 23 24 24 24 24 23 23 23 23 23 23 23 23 23 23 23 23 24 24 24 24 24 24 25 25 26 26 26 26 26 26 26 26 26 27 27 27 27 27 27 27
24 24 24 24 24 24 24 24 24 24 23 23 23 23 23 23 23 23 23 23 23 24 24 24 24 25 25 25 26 26 26 27 26 26 26 27 27 27 28 28 27 27 26 26
24 24 24 24 24 24 25 24 24 24 24 23 23 23 23 23 23 23 23 22 22 23 24 25 26 26 26 26 26 26 26 27 27 27 27 27 28 28 28 28 28 27 27 27
25 24 24 23 23 23 23 23 24 24 23 23 23 24 24 24 23 23 23 23 23 24 25 25 26 26 26 26 26 26 26 26 27 27 27 28 29 29 29 29 28 28 28 27
Wind_Direction
208 204 207 217 228 236 248 268 285 303 318 328 331 332 330 336 343 348 353 351 351 352 357 0 360 0 5 4 6 11 8 8 14 11 359 355 355 358 7 1 338 327 313 292
215 218 221 228 235 239 257 269 284 301 313 321 322 321 324 328 333 336 340 343 346 348 349 353 358 1 4 2 2 2 0 6 4 357 355 353 346 340 344 344 331 333 325 316
216 224 226 232 233 237 255 265 274 288 305 316 317 318 317 324 328 330 331 335 340 340 342 345 347 351 356 355 354 356 356 356 351 348 347 343 332 322 315 317 320 326 318 311
221 227 230 235 235 243 255 265 271 284 300 307 314 299 305 314 322 326 327 329 330 331 332 336 339 339 343 345 343 343 346 349 347 347 342 334 330 325 312 311 309 303 301 306
226 228 232 235 238 246 255 263 269 279 290 295 299 290 291 305 312 317 317 319 320 320 322 326 329 329 331 334 335 333 334 336 339 341 339 332 331 326 314 311 310 301 292 297
226 227 231 234 239 251 261 265 274 282 290 291 287 284 288 300 306 304 306 309 310 309 310 315 318 321 323 323 326 325 327 327 326 326 329 323 319 319 319 314 308 300 294 292
227 231 233 234 239 250 258 267 276 282 285 283 285 285 288 297 297 297 299 303 305 305 306 308 311 314 316 315 317 319 320 319 318 315 314 315 316 312 312 312 310 305 299 296
229 235 234 232 235 243 247 249 252 264 277 284 288 287 291 295 296 296 299 302 302 302 303 304 304 306 307 309 310 311 312 313 314 313 311 309 310 307 309 310 308 304 301 301
228 233 232 230 233 238 246 250 251 263 275 282 285 289 289 291 294 293 297 302 300 299 300 300 300 301 301 302 303 304 305 307 308 307 306 305 304 301 301 302 303 300 296 295
227 233 235 235 239 244 248 253 258 261 268 277 285 291 289 292 294 296 297 299 298 296 295 296 297 297 296 295 296 300 301 301 302 302 301 301 299 296 296 296 296 296 291 288
230 234 240 241 244 250 253 256 259 263 264 268 280 284 287 292 296 296 295 297 298 296 294 293 292 292 292 292 292 293 294 295 297 298 297 297 299 296 294 292 292 292 290 287
231 233 240 246 250 253 257 259 259 262 268 271 275 282 289 290 294 294 294 295 296 296 296 295 294 292 289 288 289 291 292 293 294 295 295 295 296 296 294 293 292 291 290 287
232 235 241 250 254 256 258 258 258 261 267 271 274 280 286 288 289 291 291 292 294 295 297 297 296 294 289 285 286 289 291 291 290 292 293 293 293 294 294 292 292 290 288 287
234 236 238 245 252 255 256 257 259 261 266 272 273 275 281 286 286 288 287 289 291 293 296 296 295 294 291 288 287 289 292 292 292 293 294 292 290 290 291 290 288 288 289 288
237 240 242 245 249 252 256 258 261 261 262 265 270 274 278 283 284 285 286 288 290 291 293 294 295 293 293 293 291 289 290 291 292 293 294 294 291 289 288 288 288 288 288 288
238 240 244 248 251 254 256 258 260 262 263 267 270 273 276 280 281 282 283 285 287 287 289 291 293 294 292 294 292 290 289 291 291 291 291 290 289 287 286 286 288 290 289 288
240 242 244 249 252 256 258 259 261 264 266 268 270 274 278 278 281 283 284 284 284 283 286 288 289 292 292 292 291 291 291 291 290 289 288 287 286 285 284 284 286 288 289 288
241 242 244 248 252 255 259 259 260 263 266 268 269 272 276 276 279 281 283 284 282 282 283 286 288 288 290 291 290 292 294 294 292 290 289 285 284 284 285 284 285 287 288 289
242 243 244 247 253 258 260 260 262 264 265 268 271 272 272 274 277 280 282 283 282 281 281 283 286 288 288 288 289 292 294 295 295 294 291 288 285 285 286 287 288 287 288 287
246 245 247 250 251 255 260 264 265 266 267 269 271 273 274 274 277 278 279 280 281 281 282 283 285 286 285 285 287 288 291 294 294 293 292 291 289 288 290 291 290 289 289 288
246 246 248 251 254 257 260 263 264 264 267 270 273 275 276 276 277 277 277 277 278 280 282 284 285 287 286 286 286 288 290 292 292 292 293 293 293 292 291 292 292 291 291 289
246 248 249 250 252 255 260 260 262 265 268 271 274 276 278 278 279 277 277 277 278 280 282 284 285 286 287 287 287 288 289 290 290 290 291 293 294 294 294 294 294 293 294 292
245 247 249 251 253 257 260 261 263 265 267 271 274 277 280 279 281 279 278 278 279 280 281 282 284 284 286 286 286 286 286 288 289 290 290 291 292 293 294 294 294 294 294 293
245 247 249 251 253 257 260 261 263 264 267 271 274 278 279 280 281 280 279 279 279 280 281 281 282 285 287 287 288 288 288 289 288 289 289 290 291 293 294 293 293 293 294 294
247 249 250 252 255 258 261 263 263 264 268 271 274 278 280 279 279 278 278 280 282 283 282 282 284 286 286 286 288 289 289 289 289 289 289 290 292 293 294 294 293 293 292 293
247 250 252 256 258 260 263 263 262 264 267 271 274 278 280 280 278 279 280 282 283 284 284 285 286 287 287 288 288 290 291 290 290 289 289 290 292 292 293 293 291 291 291 291
Height
5922 5925 5926 5927 5928 5928 5929 5929 5928 5928 5926 5926 5925 5924 5923 5921 5920 5918 5916 5915 5913 5911 5909 5907 5905 5903 5901 5899 5897 5895 5893 5892 5890 5889 5888 5887 5886 5886 5885 5885 5884 5883 5883 5882
5922 5923 5924 5925 5926 5926 5927 5927 5927 5926 5925 5925 5924 5923 5922 5921 5920 5918 5916 5915 5913 5911 5909 5907 5905 5903 5902 5900 5898 5895 5894 5892 5891 5889 5888 5887 5886 5886 5885 5885 5884 5883 5883 5882
5920 5922 5922 5923 5924 5925 5926 5926 5926 5925 5925 5924 5924 5924 5922 5921 5919 5918 5916 5914 5913 5911 5909 5907 5905 5904 5902 5900 5898 5896 5894 5892 5891 5889 5888 5887 5886 5885 5885 5884 5884 5883 5882 5882
5917 5919 5920 5921 5923 5923 5924 5924 5924 5924 5924 5924 5924 5925 5922 5920 5919 5917 5915 5914 5912 5911 5909 5907 5905 5903 5901 5899 5897 5895 5894 5892 5891 5889 5888 5887 5886 5885 5884 5884 5883 5883 5882 5881
5915 5917 5918 5919 5921 5921 5922 5922 5922 5922 5922 5923 5922 5923 5923 5919 5918 5916 5914 5913 5911 5910 5908 5906 5904 5903 5901 5899 5897 5895 5893 5892 5890 5889 5888 5887 5886 5884 5883 5883 5882 5882 5881 5880
5913 5914 5915 5917 5918 5919 5919 5920 5921 5921 5921 5922 5921 5921 5921 5919 5917 5915 5913 5911 5910 5908 5907 5905 5903 5902 5900 5898 5896 5894 5892 5891 5890 5889 5888 5887 5885 5884 5883 5882 5881 5880 5880 5879
5910 5912 5913 5914 5915 5916 5917 5919 5921 5921 5922 5921 5919 5918 5918 5916 5914 5913 5911 5909 5908 5906 5905 5903 5902 5900 5898 5897 5895 5893 5892 5890 5889 5888 5887 5886 5884 5883 5882 5881 5880 5879 5878 5877
5909 5910 5910 5911 5913 5914 5915 5917 5919 5921 5921 5919 5916 5915 5916 5913 5911 5910 5908 5907 5906 5904 5903 5901 5900 5898 5897 5895 5894 5892 5891 5889 5888 5887 5885 5884 5883 5882 5881 5879 5878 5877 5876 5875
5906 5907 5907 5908 5910 5911 5912 5913 5915 5916 5916 5916 5915 5913 5911 5910 5908 5907 5906 5904 5903 5901 5900 5899 5897 5896 5895 5893 5892 5891 5889 5888 5887 5885 5884 5882 5881 5880 5879 5877 5876 5874 5873 5872
5901 5903 5904 5905 5907 5908 5909 5910 5911 5912 5912 5913 5912 5911 5909 5907 5906 5905 5903 5902 5900 5899 5897 5896 5895 5893 5892 5891 5890 5889 5887 5886 5885 5883 5882 5880 5879 5877 5876 5875 5873 5872 5870 5869
5897 5900 5901 5902 5903 5905 5906 5907 5907 5908 5908 5909 5910 5910 5906 5904 5902 5901 5900 5898 5897 5896 5894 5893 5891 5890 5889 5888 5887 5886 5885 5883 5882 5880 5879 5877 5876 5874 5873 5871 5870 5868 5867 5866
5893 5896 5897 5899 5900 5900 5902 5903 5904 5905 5904 5904 5905 5907 5901 5900 5899 5897 5896 5895 5894 5892 5891 5889 5888 5886 5885 5884 5883 5882 5881 5880 5879 5877 5876 5874 5873 5871 5869 5867 5866 5865 5863 5862
5889 5892 5894 5896 5898 5897 5897 5898 5899 5900 5900 5900 5901 5903 5897 5896 5894 5893 5892 5891 5890 5889 5887 5886 5884 5883 5882 5880 5879 5878 5877 5876 5875 5873 5872 5870 5869 5867 5866 5864 5862 5861 5860 5858
5884 5887 5890 5893 5893 5893 5893 5893 5894 5895 5896 5896 5896 5896 5893 5891 5890 5889 5888 5887 5886 5885 5883 5882 5881 5879 5878 5876 5875 5874 5873 5872 5870 5869 5867 5866 5865 5863 5861 5860 5858 5856 5855 5853
5880 5882 5883 5885 5886 5887 5888 5889 5889 5890 5891 5891 5891 5889 5888 5886 5885 5885 5884 5883 5882 5880 5879 5878 5877 5875 5874 5872 5871 5870 5869 5867 5866 5865 5863 5862 5860 5858 5856 5855 5853 5851 5850 5848
5874 5877 5878 5880 5881 5881 5882 5883 5884 5884 5884 5885 5885 5884 5883 5882 5881 5880 5879 5878 5877 5876 5875 5874 5872 5871 5869 5868 5867 5865 5864 5862 5861 5859 5858 5856 5854 5853 5851 5849 5848 5846 5844 5842
5869 5871 5873 5875 5876 5876 5877 5878 5878 5879 5879 5879 5879 5879 5878 5877 5876 5875 5875 5873 5872 5871 5870 5869 5867 5866 5865 5863 5862 5860 5858 5857 5855 5853 5851 5850 5848 5846 5845 5843 5841 5839 5837 5835
5864 5866 5867 5869 5871 5871 5874 5873 5873 5873 5873 5873 5873 5873 5872 5871 5871 5870 5869 5868 5867 5866 5864 5863 5862 5861 5859 5858 5856 5854 5853 5850 5848 5847 5845 5843 5840 5839 5837 5836 5834 5832 5830 5828
5857 5859 5861 5864 5865 5865 5866 5866 5867 5867 5867 5867 5867 5867 5866 5865 5865 5864 5863 5862 5861 5860 5858 5857 5856 5854 5853 5851 5850 5848 5846 5844 5842 5840 5838 5836 5834 5832 5830 5829 5827 5825 5823 5820
5851 5853 5856 5857 5858 5860 5861 5860 5860 5862 5861 5861 5861 5861 5860 5859 5859 5859 5857 5856 5855 5853 5852 5851 5849 5847 5846 5844 5843 5842 5840 5838 5836 5834 5832 5829 5827 5825 5824 5822 5820 5817 5815 5812
5845 5847 5848 5850 5851 5853 5853 5853 5854 5856 5856 5855 5854 5854 5854 5853 5852 5851 5850 5849 5848 5847 5845 5844 5843 5841 5839 5838 5836 5835 5833 5832 5830 5828 5825 5823 5821 5819 5816 5814 5812 5809 5807 5804
5839 5841 5842 5844 5845 5848 5846 5847 5848 5849 5848 5848 5848 5847 5846 5846 5844 5843 5843 5842 5841 5840 5838 5837 5836 5834 5833 5831 5830 5828 5826 5825 5822 5820 5819 5816 5814 5812 5809 5807 5804 5801 5798 5796
5832 5835 5836 5838 5840 5839 5839 5840 5840 5841 5841 5841 5841 5840 5840 5839 5838 5837 5835 5835 5834 5833 5831 5830 5829 5827 5826 5824 5822 5821 5819 5817 5814 5813 5811 5809 5807 5804 5802 5799 5797 5794 5791 5788
5825 5827 5829 5830 5831 5832 5832 5833 5833 5834 5834 5834 5834 5834 5833 5832 5831 5830 5828 5827 5826 5825 5824 5823 5822 5820 5819 5817 5815 5813 5811 5809 5807 5805 5803 5801 5799 5797 5794 5791 5789 5786 5784 5781
5819 5820 5821 5823 5824 5825 5825 5826 5826 5827 5827 5827 5827 5827 5826 5825 5824 5823 5822 5821 5819 5818 5817 5816 5814 5813 5811 5809 5808 5805 5803 5801 5799 5797 5795 5793 5791 5789 5786 5784 5781 5779 5776 5774
5812 5814 5815 5817 5818 5818 5818 5819 5819 5819 5820 5820 5820 5820 5819 5818 5817 5816 5815 5814 5813 5811 5810 5809 5807 5805 5804 5802 5800 5798 5796 5794 5792 5790 5788 5785 5783 5780 5778 5775 5773 5770 5768 5766